Weather in Gurskoye

Russia / Khabarovsk Krai     50°18′54″N   138°05′56″E
temp.,
°C
wind,
m/s
gust,
m/s
humid.,
%
clouds,
%
prec.,
mm/h
press.,
hPa
HPBL,
m
9 may, sun
sun901:00+4nne359899 0.0 1004217
04:00+3nne359799 0.0 1004261
07:00+4ne478595 0.0 1004486
10:00+8ene5765100 0.0 10041015
13:00+10ene6754100 0.0 10041247
16:00+10ne6754100 0.0 10041289
19:00+8ne5762100 0.0 10051040
22:00+5nne2675100 0.0 1007365
10 may, mon
mon1001:00+3n3583100 0.0 1007252
04:000n3588100 0.0 1008311
07:000n3579100 0.0 1010414
10:00+6n456161 0.0 1009921
13:00+8n565780 0.0 10101166
16:00+9n455797 0.0 10101228
19:00+7n356497 0.0 1012720
22:00+3nne248188 0.0 1014125
11 may, tue
tue1101:00+2ne228592 0.0 101558
04:00+1ne228665 0.0 101645
07:00+3ene12749 0.0 1017189
10:00+8nnw215634 0.0 1017812
13:00+11nw324931 0.0 10161359
16:00+12nw334648 0.0 10151512
19:00+11nw23495 0.0 1015701
22:00+7s116488 0.0 101711
12 may, wed
wed1201:00+6sse227179 0.0 101719
04:00+7sse2271100 0.0 101641
07:00+8se226867 0.0 1016121
10:00+12ssw355125 0.0 10141236
13:00+15sw5641100 0.0 10121960
16:00+17sw4638100 0.0 10101966
19:00+14se1154100 0.0 100811
22:00+11s2363100 0.0 100940
13 may, thu
thu1301:00+9s3992100 1.4 10101109
04:00+9s2890100 3.8 1009653
07:00+10s388288 0.1 1008937
10:00+11ssw61072100 0.5 10071212
13:00+14sw8136197 1.3 10061806
16:00+13wsw8125696 1.6 10051891
19:00+13wsw510513 0.0 1006768
22:00+8s226016 0.0 100811